| time (UTC) | temp F | wind direction | speed MPH | gust MPH | rain 1hr in | rain 24hr in | rain mn in | humidity % | barometer mb |
| 20260506090701 | 27 | 264 | 0.0 | 0.0 | 0.00 | 0.00 | 0.00 | 91 | 1015.7 |
| 20260506090202 | 27 | 264 | 0.0 | 0.0 | 0.00 | 0.00 | 0.00 | 91 | 1015.7 |
| 20260506085700 | 27 | 264 | 0.0 | 0.0 | 0.00 | 0.00 | 0.00 | 91 | 1015.7 |
| 20260506085431 | 27 | 264 | 0.0 | 0.0 | 0.00 | 0.00 | 0.00 | 91 | 1015.7 |
| 20260506084646 | 27 | 264 | 0.0 | 0.0 | 0.00 | 0.00 | 0.00 | 91 | 1015.7 |
| 20260506084141 | 27 | 264 | 0.0 | 0.0 | 0.00 | 0.00 | 0.00 | 91 | 1015.7 |
| 20260506083636 | 27 | 264 | 0.0 | 0.0 | 0.00 | 0.00 | 0.00 | 91 | 1015.7 |
| 20260506083345 | 28 | 264 | 0.0 | 0.0 | 0.00 | 0.00 | 0.00 | 91 | 1015.7 |
| 20260506082609 | 28 | 264 | 0.0 | 0.0 | 0.00 | 0.00 | 0.00 | 91 | 1015.7 |
| 20260506082058 | 28 | 264 | 0.0 | 0.0 | 0.00 | 0.00 | 0.00 | 91 | 1015.7 |
| 20260506081554 | 28 | 264 | 0.0 | 0.0 | 0.00 | 0.00 | 0.00 | 90 | 1015.7 |
| 20260506081034 | 28 | 264 | 0.0 | 0.0 | 0.00 | 0.00 | 0.00 | 91 | 1015.7 |
| 20260506080533 | 28 | 264 | 0.0 | 0.0 | 0.00 | 0.00 | 0.00 | 90 | 1015.7 |
| 20260506073349 | 28 | 264 | 0.0 | 0.0 | 0.00 | 0.00 | 0.00 | 89 | 1015.5 |
| 20260506072844 | 28 | 264 | 0.0 | 0.0 | 0.00 | 0.00 | 0.00 | 89 | 1015.6 |
| 20260506072344 | 28 | 264 | 0.0 | 0.0 | 0.00 | 0.00 | 0.00 | 89 | 1015.5 |
| 20260506071841 | 28 | 264 | 0.0 | 0.0 | 0.00 | 0.00 | 0.00 | 89 | 1015.5 |
| 20260506071308 | 28 | 264 | 0.0 | 0.0 | 0.00 | 0.00 | 0.00 | 89 | 1015.5 |
| 20260506070807 | 28 | 264 | 0.0 | 0.0 | 0.00 | 0.00 | 0.00 | 89 | 1015.3 |
| 20260506070238 | 28 | 264 | 0.0 | 0.0 | 0.00 | 0.00 | 0.00 | 89 | 1015.3 |
| 20260506062108 | 29 | 264 | 0.0 | 0.0 | 0.00 | 0.00 | 0.00 | 87 | 1014.9 |
| 20260506061835 | 29 | 264 | 0.0 | 0.0 | 0.00 | 0.00 | 0.00 | 87 | 1014.7 |
| 20260506061334 | 29 | 264 | 0.0 | 0.0 | 0.00 | 0.00 | 0.00 | 87 | 1014.6 |
| 20260506060604 | 29 | 264 | 0.0 | 0.0 | 0.00 | 0.00 | 0.00 | 87 | 1014.6 |
| 20260506060332 | 29 | 264 | 0.0 | 0.0 | 0.00 | 0.00 | 0.00 | 86 | 1014.4 |
| 20260506051004 | 32 | 264 | 0.0 | 0.0 | 0.00 | 0.00 | 0.00 | 84 | 1013.8 |
| 20260506050503 | 32 | 264 | 0.0 | 0.0 | 0.00 | 0.00 | 0.00 | 84 | 1013.9 |
| 20260506050216 | 32 | 264 | 0.0 | 0.0 | 0.00 | 0.00 | 0.00 | 84 | 1013.8 |
| 20260506044908 | 33 | 264 | 0.0 | 0.0 | 0.00 | 0.00 | 0.00 | 83 | 1013.7 |
| 20260506044409 | 33 | 264 | 0.0 | 0.0 | 0.00 | 0.00 | 0.00 | 83 | 1013.7 |
| 20260506043902 | 33 | 264 | 0.0 | 0.0 | 0.00 | 0.00 | 0.00 | 82 | 1013.7 |
| 20260506043400 | 33 | 264 | 0.0 | 0.0 | 0.00 | 0.00 | 0.00 | 82 | 1013.6 |
| 20260506042844 | 34 | 264 | 0.0 | 0.0 | 0.00 | 0.00 | 0.00 | 82 | 1013.6 |
| 20260506042613 | 34 | 264 | 0.0 | 0.0 | 0.00 | 0.00 | 0.00 | 81 | 1013.6 |
| 20260506041808 | 34 | 264 | 0.0 | 0.0 | 0.00 | 0.00 | 0.00 | 81 | 1013.5 |
| 20260506041308 | 35 | 264 | 0.0 | 0.0 | 0.00 | 0.00 | 0.00 | 80 | 1013.5 |
| 20260506040803 | 35 | 264 | 0.0 | 0.0 | 0.00 | 0.00 | 0.00 | 80 | 1013.2 |
| 20260506040256 | 35 | 264 | 0.0 | 0.0 | 0.00 | 0.00 | 0.00 | 80 | 1013.1 |
| 20260506035735 | 36 | 264 | 0.0 | 0.0 | 0.00 | 0.00 | 0.00 | 79 | 1013.1 |
| 20260506035458 | 36 | 264 | 0.0 | 0.0 | 0.00 | 0.00 | 0.00 | 79 | 1013.0 |
| 20260506034933 | 37 | 264 | 0.0 | 0.0 | 0.00 | 0.00 | 0.00 | 78 | 1012.9 |
| 20260506034202 | 37 | 264 | 0.0 | 0.0 | 0.00 | 0.00 | 0.00 | 78 | 1012.9 |
| 20260506033649 | 37 | 264 | 0.0 | 0.0 | 0.00 | 0.00 | 0.00 | 78 | 1012.8 |
| 20260506033150 | 38 | 264 | 0.0 | 0.0 | 0.00 | 0.00 | 0.00 | 78 | 1012.6 |
| 20260506032646 | 38 | 264 | 0.0 | 0.0 | 0.00 | 0.00 | 0.00 | 77 | 1012.6 |
| 20260506032144 | 38 | 264 | 0.0 | 0.0 | 0.00 | 0.00 | 0.00 | 77 | 1012.5 |
| 20260506031638 | 39 | 264 | 0.0 | 0.0 | 0.00 | 0.00 | 0.00 | 77 | 1012.4 |
| 20260506031136 | 39 | 264 | 0.0 | 0.0 | 0.00 | 0.00 | 0.00 | 77 | 1012.2 |
| 20260506030626 | 40 | 264 | 0.0 | 0.0 | 0.00 | 0.00 | 0.00 | 76 | 1012.1 |
| 20260506030111 | 40 | 264 | 0.0 | 0.0 | 0.00 | 0.00 | 0.00 | 76 | 1012.1 |
| 20260506025843 | 41 | 264 | 0.0 | 0.0 | 0.00 | 0.00 | 0.00 | 75 | 1011.9 |
| 20260506025047 | 41 | 263 | 0.0 | 0.0 | 0.00 | 0.00 | 0.00 | 74 | 1011.8 |
| 20260506024523 | 42 | 264 | 0.0 | 0.0 | 0.00 | 0.00 | 0.00 | 74 | 1011.8 |
| 20260506024012 | 42 | 264 | 0.0 | 0.0 | 0.00 | 0.00 | 0.00 | 73 | 1011.8 |
| 20260506023511 | 42 | 264 | 0.0 | 0.0 | 0.00 | 0.00 | 0.00 | 73 | 1011.7 |
| 20260506023009 | 43 | 264 | 0.0 | 0.0 | 0.00 | 0.00 | 0.00 | 72 | 1011.6 |
| 20260506022740 | 43 | 264 | 0.0 | 0.0 | 0.00 | 0.00 | 0.00 | 71 | 1011.6 |
| 20260506022007 | 43 | 264 | 0.0 | 0.0 | 0.00 | 0.00 | 0.00 | 70 | 1011.6 |
| 20260506021500 | 44 | 263 | 0.0 | 0.0 | 0.00 | 0.00 | 0.00 | 69 | 1011.5 |
| 20260506020921 | 44 | 269 | 0.0 | 0.0 | 0.00 | 0.00 | 0.00 | 69 | 1011.3 |
| 20260506020418 | 45 | 270 | 0.0 | 0.0 | 0.00 | 0.00 | 0.00 | 69 | 1011.4 |
| 20260506015915 | 45 | 269 | 0.0 | 0.0 | 0.00 | 0.00 | 0.00 | 68 | 1011.3 |
| 20260506015413 | 45 | 270 | 0.0 | 0.0 | 0.00 | 0.00 | 0.00 | 68 | 1011.2 |
| 20260506014911 | 45 | 265 | 0.0 | 2.0 | 0.00 | 0.00 | 0.00 | 68 | 1011.1 |
| 20260506014408 | 45 | 264 | 1.0 | 8.0 | 0.00 | 0.00 | 0.00 | 68 | 1011.1 |
| 20260506013908 | 45 | 288 | 1.0 | 8.0 | 0.00 | 0.00 | 0.00 | 67 | 1011.0 |
| 20260506013405 | 46 | 342 | 1.0 | 8.0 | 0.00 | 0.00 | 0.00 | 67 | 1011.0 |
| 20260506013136 | 46 | 327 | 1.0 | 8.0 | 0.00 | 0.00 | 0.00 | 68 | 1010.9 |
| 20260506012400 | 46 | 323 | 0.0 | 6.0 | 0.00 | 0.00 | 0.00 | 69 | 1010.8 |
| 20260506011847 | 46 | 277 | 1.0 | 9.0 | 0.00 | 0.00 | 0.00 | 70 | 1010.8 |
| 20260506011346 | 46 | 268 | 2.0 | 10.0 | 0.00 | 0.00 | 0.00 | 70 | 1010.7 |
| 20260506011115 | 47 | 290 | 1.0 | 10.0 | 0.00 | 0.00 | 0.00 | 68 | 1010.8 |
| 20260506010334 | 47 | 286 | 1.0 | 7.0 | 0.00 | 0.00 | 0.00 | 66 | 1010.8 |
| 20260506005833 | 47 | 271 | 1.0 | 7.0 | 0.00 | 0.00 | 0.00 | 65 | 1010.7 |
| 20260506005332 | 47 | 269 | 0.0 | 4.0 | 0.00 | 0.00 | 0.00 | 65 | 1010.5 |
| 20260506005101 | 47 | 277 | 1.0 | 5.0 | 0.00 | 0.00 | 0.00 | 65 | 1010.4 |
| 20260506004936 | 47 | 242 | 1.0 | 6.0 | 0.00 | 0.00 | 0.00 | 66 | 1010.4 |
| 20260506003831 | 47 | 271 | 3.0 | 10.0 | 0.00 | 0.00 | 0.00 | 67 | 1010.4 |
| 20260506003331 | 47 | 308 | 4.0 | 11.0 | 0.00 | 0.00 | 0.00 | 66 | 1010.5 |
| 20260506002831 | 48 | 5 | 3.0 | 11.0 | 0.00 | 0.00 | 0.00 | 66 | 1010.6 |
| 20260506002330 | 48 | 339 | 4.0 | 11.0 | 0.00 | 0.00 | 0.00 | 66 | 1010.6 |
| 20260506001830 | 48 | 355 | 5.0 | 11.0 | 0.00 | 0.00 | 0.00 | 65 | 1010.6 |
| 20260506001328 | 48 | 325 | 4.0 | 11.0 | 0.00 | 0.00 | 0.00 | 64 | 1010.6 |
| 20260506000829 | 49 | 67 | 2.0 | 8.0 | 0.00 | 0.00 | 0.00 | 62 | 1010.4 |
| 20260506000552 | 49 | 43 | 1.0 | 7.0 | 0.00 | 0.00 | 0.00 | 63 | 1010.4 |
| 20260506000426 | 49 | 30 | 0.0 | 4.0 | 0.00 | 0.00 | 0.00 | 63 | 1010.4 |
| 20260505235318 | 48 | 345 | 1.0 | 8.0 | 0.00 | 0.00 | 0.00 | 63 | 1010.2 |
| 20260505234815 | 48 | 303 | 2.0 | 8.0 | 0.00 | 0.00 | 0.00 | 64 | 1010.2 |
| 20260505234314 | 48 | 355 | 1.0 | 9.0 | 0.00 | 0.00 | 0.00 | 66 | 1010.1 |
| 20260505233809 | 48 | 12 | 1.0 | 9.0 | 0.00 | 0.00 | 0.00 | 67 | 1010.2 |
| 20260505233531 | 47 | 302 | 0.0 | 1.0 | 0.00 | 0.00 | 0.00 | 68 | 1010.3 |
| 20260505232802 | 47 | 288 | 0.0 | 1.0 | 0.00 | 0.00 | 0.00 | 69 | 1010.3 |
| 20260505232257 | 46 | 0 | 1.0 | 7.0 | 0.00 | 0.00 | 0.00 | 70 | 1010.3 |
| 20260505231755 | 46 | 5 | 3.0 | 9.0 | 0.00 | 0.00 | 0.00 | 70 | 1010.4 |
| 20260505231252 | 46 | 290 | 4.0 | 9.0 | 0.00 | 0.00 | 0.00 | 69 | 1010.4 |
| 20260505230753 | 46 | 52 | 3.0 | 9.0 | 0.00 | 0.00 | 0.00 | 69 | 1010.5 |
| 20260505230246 | 46 | 348 | 2.0 | 8.0 | 0.00 | 0.00 | 0.00 | 69 | 1010.5 |
| 20260505230010 | 46 | 278 | 3.0 | 9.0 | 0.00 | 0.00 | 0.00 | 70 | 1010.5 |
| 20260505225844 | 46 | 11 | 3.0 | 10.0 | 0.00 | 0.00 | 0.00 | 70 | 1010.6 |
| 20260505224734 | 45 | 9 | 4.0 | 10.0 | 0.00 | 0.00 | 0.00 | 71 | 1010.6 |
| 20260505224229 | 45 | 333 | 6.0 | 11.0 | 0.00 | 0.00 | 0.00 | 70 | 1010.7 |
| 20260505223727 | 45 | 33 | 6.0 | 11.0 | 0.00 | 0.00 | 0.00 | 70 | 1010.8 |
| 20260505223227 | 46 | 10 | 4.0 | 10.0 | 0.00 | 0.00 | 0.00 | 71 | 1010.8 |
| 20260505222726 | 45 | 314 | 5.0 | 12.0 | 0.00 | 0.00 | 0.00 | 71 | 1010.8 |
| 20260505222227 | 45 | 355 | 6.0 | 12.0 | 0.00 | 0.00 | 0.00 | 70 | 1010.8 |
| 20260505221726 | 45 | 308 | 5.0 | 11.0 | 0.00 | 0.00 | 0.00 | 71 | 1010.9 |
| 20260505221226 | 45 | 322 | 5.0 | 11.0 | 0.00 | 0.00 | 0.00 | 71 | 1010.8 |
| 20260505220726 | 46 | 255 | 4.0 | 9.0 | 0.00 | 0.00 | 0.00 | 72 | 1010.8 |
| 20260505220225 | 45 | 253 | 5.0 | 13.0 | 0.00 | 0.00 | 0.00 | 72 | 1010.7 |
| 20260505215726 | 45 | 355 | 6.0 | 16.0 | 0.00 | 0.00 | 0.00 | 72 | 1010.8 |
| 20260505215452 | 45 | 271 | 7.0 | 16.0 | 0.00 | 0.00 | 0.00 | 72 | 1010.7 |
| 20260505214950 | 44 | 336 | 7.0 | 16.0 | 0.00 | 0.00 | 0.00 | 72 | 1010.7 |
| 20260505214220 | 45 | 289 | 6.0 | 15.0 | 0.00 | 0.00 | 0.00 | 72 | 1010.8 |
| 20260505213714 | 45 | 248 | 7.0 | 18.0 | 0.00 | 0.00 | 0.00 | 72 | 1010.9 |
| 20260505213208 | 45 | 296 | 7.0 | 18.0 | 0.00 | 0.00 | 0.00 | 71 | 1010.8 |
| 20260505212929 | 45 | 301 | 7.0 | 19.0 | 0.00 | 0.00 | 0.00 | 72 | 1010.9 |
| 20260505212158 | 45 | 261 | 9.0 | 20.0 | 0.00 | 0.00 | 0.00 | 71 | 1010.8 |
| 20260505211658 | 46 | 349 | 9.0 | 20.0 | 0.00 | 0.00 | 0.00 | 70 | 1010.9 |
| 20260505211157 | 46 | 302 | 8.0 | 16.0 | 0.00 | 0.00 | 0.00 | 69 | 1010.7 |
| 20260505210656 | 46 | 296 | 6.0 | 16.0 | 0.00 | 0.00 | 0.00 | 71 | 1010.7 |
| 20260505210156 | 46 | 302 | 5.0 | 12.0 | 0.00 | 0.00 | 0.00 | 70 | 1010.7 |
| 20260505205656 | 46 | 253 | 5.0 | 16.0 | 0.00 | 0.00 | 0.00 | 71 | 1010.6 |
| 20260505205155 | 45 | 244 | 6.0 | 16.0 | 0.00 | 0.00 | 0.00 | 72 | 1010.6 |
| 20260505204927 | 45 | 345 | 6.0 | 12.0 | 0.00 | 0.00 | 0.00 | 70 | 1010.6 |
| 20260505204156 | 45 | 5 | 4.0 | 14.0 | 0.00 | 0.00 | 0.00 | 71 | 1010.6 |
| 20260505203656 | 45 | 310 | 3.0 | 14.0 | 0.00 | 0.00 | 0.00 | 71 | 1010.5 |
| 20260505203427 | 45 | 325 | 5.0 | 10.0 | 0.00 | 0.00 | 0.00 | 72 | 1010.6 |
| 20260505202656 | 45 | 249 | 3.0 | 10.0 | 0.00 | 0.00 | 0.00 | 71 | 1010.6 |
| 20260505202156 | 45 | 317 | 3.0 | 10.0 | 0.00 | 0.00 | 0.00 | 70 | 1010.6 |
| 20260505201654 | 45 | 286 | 4.0 | 10.0 | 0.00 | 0.00 | 0.00 | 70 | 1010.5 |
| 20260505201147 | 45 | 275 | 5.0 | 11.0 | 0.00 | 0.00 | 0.00 | 69 | 1010.5 |
| 20260505200642 | 46 | 242 | 4.0 | 12.0 | 0.00 | 0.00 | 0.00 | 69 | 1010.5 |
| 20260505200141 | 46 | 310 | 4.0 | 12.0 | 0.00 | 0.00 | 0.00 | 69 | 1010.4 |
| 20260505195642 | 46 | 258 | 4.0 | 9.0 | 0.00 | 0.00 | 0.00 | 68 | 1010.4 |
| 20260505195412 | 47 | 290 | 3.0 | 8.0 | 0.00 | 0.00 | 0.00 | 67 | 1010.4 |
| 20260505194641 | 47 | 263 | 2.0 | 8.0 | 0.00 | 0.00 | 0.00 | 67 | 1010.3 |
| 20260505194138 | 47 | 274 | 1.0 | 7.0 | 0.00 | 0.00 | 0.00 | 66 | 1010.2 |
| 20260505193638 | 46 | 0 | 2.0 | 9.0 | 0.00 | 0.00 | 0.00 | 64 | 1010.1 |
| 20260505193138 | 46 | 310 | 3.0 | 9.0 | 0.00 | 0.00 | 0.00 | 65 | 1010.1 |
| 20260505192629 | 46 | 286 | 2.0 | 8.0 | 0.00 | 0.00 | 0.00 | 65 | 1010.0 |
| 20260505192615 | 46 | 234 | 2.0 | 7.0 | 0.00 | 0.00 | 0.00 | 64 | 1009.9 |
| 20260505191611 | 46 | 300 | 4.0 | 10.0 | 0.00 | 0.00 | 0.00 | 64 | 1009.9 |
| 20260505191342 | 46 | 330 | 3.0 | 10.0 | 0.00 | 0.00 | 0.00 | 65 | 1009.9 |
| 20260505190610 | 46 | 17 | 3.0 | 11.0 | 0.00 | 0.00 | 0.00 | 65 | 1010.0 |
| 20260505190106 | 46 | 314 | 4.0 | 11.0 | 0.00 | 0.00 | 0.00 | 65 | 1009.9 |
| 20260505185605 | 46 | 344 | 4.0 | 11.0 | 0.00 | 0.00 | 0.00 | 65 | 1009.9 |
| 20260505185104 | 46 | 346 | 5.0 | 9.0 | 0.00 | 0.00 | 0.00 | 65 | 1009.8 |
| 20260505184605 | 47 | 338 | 4.0 | 11.0 | 0.00 | 0.00 | 0.00 | 65 | 1009.9 |
| 20260505184057 | 47 | 341 | 4.0 | 11.0 | 0.00 | 0.00 | 0.00 | 65 | 1009.7 |
| 20260505183559 | 46 | 308 | 5.0 | 11.0 | 0.00 | 0.00 | 0.00 | 66 | 1009.8 |
| 20260505183050 | 46 | 323 | 4.0 | 11.0 | 0.00 | 0.00 | 0.00 | 66 | 1009.8 |
| 20260505182547 | 46 | 331 | 3.0 | 12.0 | 0.00 | 0.00 | 0.00 | 66 | 1009.7 |
| 20260505182045 | 46 | 312 | 4.0 | 12.0 | 0.00 | 0.00 | 0.00 | 65 | 1009.6 |
| 20260505181542 | 45 | 309 | 4.0 | 9.0 | 0.00 | 0.00 | 0.00 | 67 | 1009.6 |
| 20260505181306 | 45 | 345 | 5.0 | 10.0 | 0.00 | 0.00 | 0.00 | 67 | 1009.6 |
| 20260505180534 | 45 | 316 | 4.0 | 12.0 | 0.00 | 0.00 | 0.00 | 69 | 1009.6 |
| 20260505180033 | 44 | 291 | 5.0 | 13.0 | 0.00 | 0.00 | 0.00 | 68 | 1009.5 |
| 20260505175521 | 45 | 304 | 7.0 | 14.0 | 0.00 | 0.00 | 0.00 | 67 | 1009.6 |
| 20260505175015 | 45 | 344 | 8.0 | 15.0 | 0.00 | 0.00 | 0.00 | 68 | 1009.4 |
| 20260505174520 | 44 | 32 | 7.0 | 18.0 | 0.00 | 0.00 | 0.00 | 70 | 1009.4 |
| 20260505174516 | 45 | 346 | 7.0 | 15.0 | 0.00 | 0.00 | 0.00 | 69 | 1009.5 |
| 20260505173515 | 44 | 336 | 9.0 | 20.0 | 0.00 | 0.00 | 0.00 | 72 | 1009.4 |
| 20260505173015 | 43 | 330 | 9.0 | 23.0 | 0.00 | 0.00 | 0.00 | 73 | 1009.3 |
| 20260505172514 | 43 | 314 | 7.0 | 23.0 | 0.00 | 0.00 | 0.00 | 73 | 1009.4 |
| 20260505172011 | 43 | 22 | 7.0 | 15.0 | 0.00 | 0.00 | 0.00 | 73 | 1009.3 |
| 20260505171510 | 42 | 269 | 7.0 | 16.0 | 0.00 | 0.00 | 0.00 | 74 | 1009.3 |
| 20260505171010 | 42 | 318 | 7.0 | 16.0 | 0.00 | 0.00 | 0.00 | 76 | 1009.4 |
| 20260505170510 | 42 | 292 | 8.0 | 15.0 | 0.00 | 0.00 | 0.00 | 75 | 1009.5 |
| 20260505170007 | 42 | 307 | 6.0 | 14.0 | 0.00 | 0.00 | 0.00 | 74 | 1009.3 |
| 20260505165507 | 42 | 330 | 5.0 | 13.0 | 0.00 | 0.00 | 0.00 | 75 | 1009.1 |
| 20260505165006 | 42 | 15 | 6.0 | 15.0 | 0.00 | 0.00 | 0.00 | 75 | 1009.3 |
| 20260505164505 | 41 | 28 | 7.0 | 15.0 | 0.00 | 0.00 | 0.00 | 75 | 1009.0 |
| 20260505164234 | 41 | 285 | 8.0 | 20.0 | 0.00 | 0.00 | 0.00 | 76 | 1009.1 |
| 20260505163503 | 41 | 263 | 7.0 | 20.0 | 0.00 | 0.00 | 0.00 | 76 | 1009.0 |
| 20260505162957 | 41 | 286 | 5.0 | 18.0 | 0.00 | 0.00 | 0.00 | 76 | 1008.9 |
| 20260505162453 | 41 | 0 | 6.0 | 18.0 | 0.00 | 0.00 | 0.00 | 78 | 1008.8 |
| 20260505161954 | 41 | 5 | 6.0 | 18.0 | 0.00 | 0.00 | 0.00 | 78 | 1008.7 |
| 20260505161451 | 41 | 338 | 5.0 | 14.0 | 0.00 | 0.00 | 0.00 | 78 | 1008.7 |
| 20260505160951 | 41 | 19 | 6.0 | 14.0 | 0.00 | 0.00 | 0.00 | 79 | 1008.5 |
| 20260505160721 | 41 | 313 | 6.0 | 14.0 | 0.00 | 0.00 | 0.00 | 80 | 1008.5 |
| 20260505160220 | 40 | 254 | 6.0 | 14.0 | 0.00 | 0.00 | 0.00 | 80 | 1008.5 |
| 20260505152927 | 39 | 279 | 4.0 | 19.0 | 0.00 | 0.00 | 0.00 | 84 | 1008.4 |
| 20260505152658 | 39 | 335 | 2.0 | 13.0 | 0.00 | 0.00 | 0.00 | 86 | 1008.5 |
| 20260505151927 | 38 | 11 | 1.0 | 9.0 | 0.00 | 0.00 | 0.00 | 87 | 1008.5 |
| 20260505151922 | 38 | 25 | 3.0 | 9.0 | 0.00 | 0.00 | 0.00 | 87 | 1008.5 |
| 20260505150917 | 37 | 14 | 3.0 | 12.0 | 0.00 | 0.00 | 0.00 | 87 | 1008.4 |
| 20260505150417 | 37 | 38 | 2.0 | 12.0 | 0.00 | 0.00 | 0.00 | 88 | 1008.4 |
| 20260505140606 | 36 | 307 | 1.0 | 9.0 | 0.00 | 0.00 | 0.00 | 87 | 1008.1 |
| 20260505130303 | 34 | 115 | 0.0 | 6.0 | 0.00 | 0.00 | 0.00 | 86 | 1007.8 |
| 20260505124718 | 34 | 150 | 1.0 | 5.0 | 0.00 | 0.00 | 0.00 | 85 | 1007.7 |
| 20260505124213 | 34 | 150 | 1.0 | 5.0 | 0.00 | 0.00 | 0.00 | 85 | 1007.7 |
| 20260505123710 | 34 | 126 | 1.0 | 4.0 | 0.00 | 0.00 | 0.00 | 85 | 1007.7 |
| 20260505123205 | 34 | 105 | 0.0 | 4.0 | 0.00 | 0.00 | 0.00 | 85 | 1007.8 |
| 20260505122658 | 34 | 75 | 1.0 | 4.0 | 0.00 | 0.00 | 0.00 | 86 | 1007.6 |
| 20260505122419 | 34 | 75 | 1.0 | 10.0 | 0.00 | 0.00 | 0.00 | 86 | 1007.6 |
| 20260505121644 | 34 | 292 | 0.0 | 10.0 | 0.00 | 0.00 | 0.00 | 85 | 1007.5 |
| 20260505121144 | 34 | 157 | 0.0 | 0.0 | 0.00 | 0.00 | 0.00 | 85 | 1007.5 |
| 20260505120914 | 34 | 157 | 0.0 | 0.0 | 0.00 | 0.00 | 0.00 | 84 | 1007.6 |
| 20260505120138 | 34 | 156 | 0.0 | 5.0 | 0.00 | 0.00 | 0.00 | 83 | 1007.7 |
| 20260505115610 | 34 | 46 | 0.0 | 5.0 | 0.00 | 0.00 | 0.00 | 83 | 1007.7 |
| 20260505115110 | 34 | 111 | 0.0 | 0.0 | 0.00 | 0.00 | 0.00 | 81 | 1007.6 |
| 20260505114839 | 34 | 111 | 0.0 | 0.0 | 0.00 | 0.00 | 0.00 | 81 | 1007.8 |
| 20260505114106 | 35 | 111 | 0.0 | 0.0 | 0.00 | 0.00 | 0.00 | 81 | 1007.6 |
| 20260505113604 | 35 | 111 | 0.0 | 1.0 | 0.00 | 0.00 | 0.00 | 80 | 1007.6 |
| 20260505113050 | 35 | 111 | 0.0 | 1.0 | 0.00 | 0.00 | 0.00 | 81 | 1007.6 |
| 20260505112546 | 35 | 106 | 0.0 | 5.0 | 0.00 | 0.00 | 0.00 | 80 | 1007.6 |
| 20260505112024 | 36 | 106 | 0.0 | 6.0 | 0.00 | 0.00 | 0.00 | 80 | 1007.6 |
| 20260505111525 | 36 | 80 | 1.0 | 6.0 | 0.00 | 0.00 | 0.00 | 80 | 1007.6 |
| 20260505111022 | 36 | 136 | 0.0 | 4.0 | 0.00 | 0.00 | 0.00 | 79 | 1007.5 |
| 20260505110523 | 36 | 42 | 1.0 | 6.0 | 0.00 | 0.00 | 0.00 | 80 | 1007.7 |
| 20260505101954 | 37 | 269 | 2.0 | 8.0 | 0.00 | 0.00 | 0.00 | 80 | 1007.5 |
| 20260505101718 | 37 | 283 | 3.0 | 12.0 | 0.00 | 0.00 | 0.00 | 81 | 1007.6 |
| 20260505101553 | 37 | 338 | 3.0 | 12.0 | 0.00 | 0.00 | 0.00 | 81 | 1007.7 |
| 20260505100446 | 37 | 269 | 3.0 | 12.0 | 0.00 | 0.00 | 0.00 | 81 | 1007.8 |
| 20260505095944 | 37 | 267 | 3.0 | 12.0 | 0.00 | 0.00 | 0.00 | 81 | 1007.8 |
| 20260505095443 | 37 | 295 | 2.0 | 10.0 | 0.00 | 0.00 | 0.00 | 80 | 1007.8 |
| 20260505094942 | 37 | 232 | 3.0 | 11.0 | 0.00 | 0.00 | 0.00 | 80 | 1007.8 |
| 20260505094439 | 37 | 261 | 3.0 | 11.0 | 0.00 | 0.00 | 0.00 | 80 | 1008.0 |
| 20260505093940 | 37 | 5 | 2.0 | 11.0 | 0.00 | 0.00 | 0.00 | 79 | 1007.9 |
| 20260505093437 | 37 | 65 | 2.0 | 9.0 | 0.00 | 0.00 | 0.00 | 79 | 1007.9 |
| 20260505092930 | 37 | 326 | 2.0 | 11.0 | 0.00 | 0.00 | 0.00 | 79 | 1007.9 |
| 20260505092429 | 37 | 305 | 2.0 | 12.0 | 0.00 | 0.00 | 0.00 | 80 | 1008.0 |
| 20260505092200 | 37 | 252 | 2.0 | 12.0 | 0.00 | 0.00 | 0.00 | 80 | 1008.0 |
| 20260505091420 | 37 | 265 | 2.0 | 11.0 | 0.00 | 0.00 | 0.00 | 80 | 1008.0 |